Content
SEND FEEDBACK

Daily
Averages
Monthly
Summary
United States of America

BOSTON, MASSACHUSETTS


Home > North America > United States > Massachusetts
Elevation: 4 feet     Latitude: 42 22N     Longitude: 071 02W

WEATHER
 
SELECT A DAY
Number of Records: 202,613;   Date Range: 1/1/95 - 7/28/14
 
SHARE

PRINT THIS DATA

[ ← Previous Day ]
WEATHER ALMANAC - APRIL 29, 2013
[ Next Day → ]
[ °C ]   °F
Weather ElementAverageHighLow
Temperature56 °F66.9 °F (4:54 pm)48.9 °F (2:54 am)
Dewpoint37.3 °F46 °F (11:54 am)14 °F (7:54 pm)
Humidity53.7 %80 % (2:54 am)17 % (7:54 pm)
Barometer30.25 in30.29 in (7:54 am)30.20 in (4:54 pm)
Wind Speed9.8 mph17.3 mph (1:54 pm)
Weather ElementAverage
Visibility10 mi
Wind DirectionSSE (166.5 °)

Weather ElementTotal
Precipitation---
Heating Degree Days7.1 (Base 65)
Growing Degree Days7.9 (Base 50)
Averaged from 23 records on April 29, 2013
WEATHER CONDITIONS BREAKOUT
WIND DIRECTION BREAKOUT
WEATHER BY HOUR - APRIL 29, 2013
[ °C ]   °F
Local TimeTemperatureDewpointHumidityBarometerVisibilityWind DirectionWind SpeedGust SpeedPrecipitationEventsConditions
1:54 AM50.0 °F42.1 °F74 %30.27 in10.0 miSW (230°)6.9 mphOvercast
2:54 AM48.9 °F43.0 °F80 %30.26 in10.0 miSSW (200°)4.6 mphOvercast
3:54 AM48.9 °F43.0 °F80 %30.25 in10.0 miSSW (210°)4.6 mphOvercast
4:54 AM48.9 °F43.0 °F80 %30.26 in10.0 miCalmOvercast
5:54 AM48.9 °F42.1 °F77 %30.27 in10.0 miSSW (210°)4.6 mphMostly Cloudy
6:54 AM50.0 °F43.0 °F77 %30.28 in10.0 miSSW (200°)5.8 mphOvercast
7:54 AM51.1 °F44.1 °F77 %30.29 in10.0 miSouth (190°)5.8 mphMostly Cloudy
8:54 AM54.0 °F45.0 °F72 %30.29 in10.0 miSouth (190°)5.8 mphOvercast
9:54 AM57.9 °F45.0 °F62 %30.28 in10.0 miSE (140°)8.1 mphOvercast
10:54 AM60.1 °F45.0 °F57 %30.27 in10.0 miSE (130°)8.1 mphMostly Cloudy
11:54 AM61.0 °F46.0 °F58 %30.26 in10.0 miESE (110°)12.7 mphScattered Clouds
12:54 PM60.1 °F45.0 °F57 %30.25 in10.0 miESE (110°)16.1 mphScattered Clouds
1:54 PM62.1 °F41.0 °F46 %30.23 in10.0 miEast (100°)17.3 mphScattered Clouds
2:54 PM62.1 °F41.0 °F46 %30.22 in10.0 miESE (110°)17.3 mphScattered Clouds
3:54 PM62.1 °F39.9 °F44 %30.21 in10.0 miESE (120°)16.1 mphScattered Clouds
4:54 PM66.9 °F33.1 °F28 %30.20 in10.0 miSouth (190°)15.0 mphScattered Clouds
5:54 PM64.0 °F30.9 °F29 %30.21 in10.0 miSouth (190°)15.0 mphScattered Clouds
6:54 PM61.0 °F27.0 °F27 %30.23 in10.0 miSouth (190°)15.0 mphMostly Cloudy
7:54 PM59.0 °F14.0 °F17 %30.24 in10.0 miSSW (200°)12.7 mphMostly Cloudy
8:54 PM55.9 °F18.0 °F23 %30.26 in10.0 miSSW (200°)11.5 mphScattered Clouds
9:54 PM53.1 °F25.0 °F34 %30.26 in10.0 miSSW (200°)9.2 mphScattered Clouds
10:54 PM52.0 °F28.9 °F41 %30.27 in10.0 miSSW (210°)6.9 mphScattered Clouds
11:54 PM50.0 °F32.0 °F50 %30.28 in10.0 miSSW (200°)6.9 mphScattered Clouds
Hourly data recorded from KBOS, located miles away from Boston, Massachusetts







STORIES FROM OUR PARTNERS